FOOLFOOG

Guest
Details From FOOL - Leon M Ba
To FOOG - Port Gentil
Flight Number -
Tags Generated
Created
Modified
Stats Distance 82 nm / 151 km
Max Altitude 0 ft / 0 m
Waypoints 2
Social Downloads 1
Likes 0
Share VATSIM

Download

Looking for another format? Having issues loading an existing format? Contact us
Advertisement - Login to hide

Notes

Generated

Route

FOOL FOOG

ID Type Via Altitude Latitude Longitude Leg Dist Tot Dist Heading (true) Name
O FOOL APT - 0 ft / 0 m 0.47081˚ 9.40635˚ - 0 nm - -
O FOOG APT - 0 ft / 0 m -0.71969˚ 8.75114˚ 81 nm 81 nm 209° / 209° -

Altitude Profile

Advertisement - Login to hide

FOOL

Details ICAO FOOL (LBV)
Name Leon M Ba
Region Gabon
Timezone Africa/Libreville (UTC+1.0)
Stats Elevation 39 ft / 12 m (AMSL)
Location 0.458616° 9.412250°
Runways 1
Magnetic Variation 1.880° W

METAR

FOOL 201600Z 22011KT 190V260 9999 BKN011 FEW018CB 28/25 Q1009 BECMG FM1615 SCT010 FEW018

Decode

TAF

TAF FOOL 201100Z 2012/2118 22007KT 9999 SCT012 FEW020CB BKN030 TEMPO 2013/2016 TS PROB30 TEMPO 2017/2024 3000 TSRA BKN006 FEW016CB OVC023 TEMPO 2107/2112 3000 TSRA BKN006 FEW016CB OVC023

Decode

Departure Runways

ID Width Length Bearing (true) Bearing (mag) Surface Threshold Offset Overrun Length
16 148 ft / 45 m 9,889 ft / 3,014 m 154.19° 156.07° Asphalt 0 ft / 0 m 192 ft / 59 m
34 148 ft / 45 m 9,889 ft / 3,014 m 334.19° 336.07° Asphalt 0 ft / 0 m 209 ft / 64 m

FOOG

Details ICAO FOOG (POG)
Name Port Gentil
Region Gabon
Timezone Africa/Libreville (UTC+1.0)
Stats Elevation 13 ft / 4 m (AMSL)
Location -0.711739° 8.754382°
Runways 1
Magnetic Variation 2.366° W

METAR

FOOG 201500Z 20010KT 9999 SCT008 FEW020CB BKN030 29/26 Q1010

Decode

TAF

TAF FOOG 201100Z 2012/2112 20010KT 9999 SCT012 FEW020CB BKN030 PROB30 TEMPO 2018/2024 3000 TSRA BKN006 FEW016CB OVC023

Decode

Destination Runways

ID Width Length Bearing (true) Bearing (mag) Surface Threshold Offset Overrun Length
03 148 ft / 45 m 6,265 ft / 1,910 m 22.17° 24.54° Asphalt 0 ft / 0 m 0 ft / 0 m
21 148 ft / 45 m 6,265 ft / 1,910 m 202.17° 204.54° Asphalt 0 ft / 0 m 197 ft / 60 m

Popular Alternatives